Regional Weather Roundup
Issued by NWS

Home | Current Version | Previous Version | Text Only | Print | Product List | Glossary Off
Versions: 1 2 3 4 5 6 7 8 9 10 11 12 13 14 15 16 17 18 19 20 21 22 23 24 25 26 27 28 29 30 31 32 33 34 35 36 37 38 39 40 41 42 43 44 45 46 47 48 49 50

000
ASUS43 KLOT 301903
RWRIL

ILLINOIS REGIONAL WEATHER ROUNDUP
NATIONAL WEATHER SERVICE CHICAGO/ROMEOVILLE IL
200 PM CDT THU MAR 30 2017

NOTE: "FAIR" INDICATES FEW OR NO CLOUDS BELOW 12,000 FEET WITH NO
SIGNIFICANT WEATHER AND/OR OBSTRUCTIONS TO VISIBILITY.

* THESE STATIONS ARE NOT UNDER NWS QUALITY CONTROL. THEY ALSO MAY NOT
  REPORT WEATHER SUCH AS PRECIPITATION OR FOG.

ILZ001-002-007-009-015-016-024-302000-
NORTHWEST ILLINOIS

CITY           SKY/WX    TMP DP  RH WIND       PRES   REMARKS
MOLINE         CLOUDY    46  42  86 NE13      29.60R
STERLING*      CLOUDY    44  42  93 E20       29.56F
SAVANNA*       CLOUDY    42  39  89 N9G20     29.62R
$$

ILZ003-004-008-010-011-017-018-302000-
NORTH CENTRAL ILLINOIS

CITY           SKY/WX    TMP DP  RH WIND       PRES   REMARKS
ROCKFORD       RAIN      42  39  89 E15       29.68S FOG
FREEPORT*      CLOUDY    40  39  97 NE18      29.66F
ROCHELLE*      LGT RAIN  41  40  98 NE26G35   29.55F
DE KALB*       RAIN      42  41  97 NE16      29.64F
PERU*          CLOUDY    45  43  94 E23       29.54F
$$

ILZ005-006-012>014-019>023-302000-
NORTHEAST ILLINOIS

CITY           SKY/WX    TMP DP  RH WIND       PRES   REMARKS
CHICAGO-OHARE  HVY RAIN  43  40  89 NE8       29.67R FOG
CHICAGO-MIDWAY RAIN      43  42  97 VRB7      29.66R FOG
AURORA         RAIN      44  42  93 NE12      29.65F FOG
LANSING*       CLOUDY    47  46  97 CALM      29.63S
JOLIET*        RAIN      46  46  97 N5        29.66S
WAUKEGAN       RAIN      40  40 100 NE8       29.71R VSB 3/4
DUPAGE AIRPORT HVY RAIN  43  43 100 N6        29.68R FOG
KANKAKEE*      CLOUDY    48  47  98 N6        29.60R
WHEELING       RAIN      41  41 100 NE7       29.70R FOG
MORRIS*        LGT RAIN  45  44  97 NE9       29.60F
ROMEOVILLE*    LGT RAIN  44  44 100 N5        29.67R
NORTHERLY ISL    N/A     40  39  97 NE3         N/A
$$

LMZ740>746-302000-
SOUTHERN LAKE MICHIGAN

STATION/POSITION SKY/WX   TEMP    WIND        PRES    VSBY  WAVE
                          AIR SEA DIR/SP/G                  HT/PER
                          (F)     (DEG/KT/KT) (MB)    (MI)  (FT/S)
HARRISON CRIB              41      40/  8/  9   N/A
BURNHAM HARBOR             40      30/  9/ 13   N/A
CALUMET HARBOR             41      40/ 10/ 13 1002.9F
BURNS HARBOR               49     130/ 19/ 29 1003.0F
MICHIGAN CITY              47     110/ 17/ 22   N/A
$$

ILZ025>027-034>036-040-047-049-050-058-095>099-302000-
WEST-CENTRAL ILLINOIS

CITY           SKY/WX    TMP DP  RH WIND       PRES   REMARKS
QUINCY         CLOUDY    53  53 100 NW8       29.54S
GALESBURG*     CLOUDY    48  47  98 NE9       29.55F
MACOMB*        CLOUDY    49  49  99 N10       29.57S FOG
JACKSONVILLE*  TSTM      57  52  83 S9G21     29.54R
PITTSFIELD*    CLOUDY    59  58  97 NW8       29.52F
$$

ILZ028>032-037-038-041>044-048-051>054-059>061-302000-
CENTRAL ILLINOIS

CITY           SKY/WX    TMP DP  RH WIND       PRES   REMARKS
PONTIAC        CLOUDY    48  47  97 E17       29.53F FOG
BLOOMINGTON    PTSUNNY   58  57  97 E15       29.52F
DECATUR        MOSUNNY   66  32  28 S8        29.53F
PEORIA         CLOUDY    54  52  93 N7        29.54F
LACON*         CLOUDY    50  48  94 E12       29.54S
LINCOLN*       CLOUDY    62  60  94 S3        29.52S
SPRINGFIELD    LGT RAIN  63  59  87 CALM      29.52S
TAYLORVILLE    LGT RAIN  64  60  90 SE5       29.51F
$$

ILZ033-039-045-046-055>057-062-063-302000-
EAST-CENTRAL ILLINOIS

CITY           SKY/WX    TMP DP  RH WIND       PRES   REMARKS
CHAMPAIGN      MOSUNNY   66  61  84 SW13      29.54F
RANTOUL*       CLOUDY    63  62  95 SE7       29.54F
MATTOON        PTSUNNY   70  59  68 S20       29.54F
$$

ILZ079-100>102-302000-
SOUTHWEST ILLINOIS

CITY           SKY/WX    TMP DP  RH WIND       PRES   REMARKS
BELLEVILLE     LGT RAIN  58  58 100 VRB5      29.54R
CAHOKIA*       CLOUDY    61  56  83 W6        29.53F
SPARTA*        TSTM      60  57  88 SW13G23   29.55R
$$

ILZ064>066-069>071-074>076-080>082-084>086-088>090-092>094-302000-
SOUTH-CENTRAL ILLINOIS

CITY           SKY/WX    TMP DP  RH WIND       PRES   REMARKS
CARBONDALE     PTSUNNY   70  58  65 S25G41    29.53F
CAIRO*         PTSUNNY   71  58  63 SW15G30   29.55F THUNDER
EFFINGHAM*     PTSUNNY   73  59  62 S15G22    29.54F
MARION         PTSUNNY   73  57  56 S20G32    29.55F
MT. VERNON     PTSUNNY   72  58  61 SW24G30   29.52F
CENTRALIA*     PTSUNNY   73  59  62 S24G30    29.50F
SALEM*         PTSUNNY   72  58  60 S16G22    29.52F
METROPOLIS*    CLOUDY    76  56  50 S20G29    29.55F
$$

ILZ067-068-072-073-078-083-087-091-302000-
SOUTHEAST ILLINOIS

CITY           SKY/WX    TMP DP  RH WIND       PRES   REMARKS
LAWRENCEVILLE  MOSUNNY   75  58  55 S25       29.56F
FLORA*         MOSUNNY   74  60  61 S17G25    29.54F
FAIRFIELD*     CLOUDY    71  57  61 S10       29.53F
HARRISBURG*    CLOUDY    72  57  59 SW15G24   29.55F
ROBINSON*      SUNNY     73  60  63 S15       29.56F
CARMI*         MOSUNNY   75  59  55 S16G23    29.55F
$$

ABBREVIATIONS USED IN REMARKS
   TC - TEMPERATURE IN CELSIUS
  WCI - WIND CHILL INDEX
   HX - HEAT INDEX
  VSB - VISIBILITY
$$




USA.gov is the U.S. government's official web portal to all federal, state and local government web resources and services.